Location: Camps Bay
(33.9517°S, 18.3844°E)
Time: 17:35:33
(UTC+00:00)

Hubble Space Telescope - Pass Details

Date: 18 January 2020
Orbit: 536 x 540 km, 28.5° (Epoch: 20 February)

Event Time Altitude Azimuth Distance (km) Brightness Sun altitude
Exits shadow 02:36:52 25° 318° (NW) 1,121 1.8 -14.3°
Maximum altitude 02:38:02 29° 348° (NNW) 1,010 1.7 -14.1°
Drops below altitude 10° 02:41:39 10° 48° (NE) 1,790 3.6 -13.5°
Sets 02:44:07 0° 59° (ENE) 2,679 4.6 -13.1°
